Year,Month,Day,Hour,Minute,Value (Times are PST for barometer in hPa)
2016,11,19,00,00,984.93
2016,11,19,00,01,985.00
2016,11,19,00,02,984.97
2016,11,19,00,03,984.90
2016,11,19,00,04,984.97
2016,11,19,00,05,984.97
2016,11,19,00,06,984.93
2016,11,19,00,07,984.90
2016,11,19,00,08,984.90
2016,11,19,00,09,984.93
2016,11,19,00,10,984.83
2016,11,19,00,11,984.83
2016,11,19,00,12,984.86
2016,11,19,00,13,984.83
2016,11,19,00,14,984.80
2016,11,19,00,15,984.73
2016,11,19,00,16,984.69
2016,11,19,00,17,984.76
2016,11,19,00,18,984.66
2016,11,19,00,19,984.73
2016,11,19,00,20,984.66
2016,11,19,00,21,984.59
2016,11,19,00,22,984.66
2016,11,19,00,23,984.66
2016,11,19,00,24,984.59
2016,11,19,00,25,984.56
2016,11,19,00,26,984.56
2016,11,19,00,27,984.52
2016,11,19,00,28,984.49
2016,11,19,00,29,984.46
2016,11,19,00,30,984.42
2016,11,19,00,31,984.42
2016,11,19,00,32,984.46
2016,11,19,00,33,984.46
2016,11,19,00,34,984.36
2016,11,19,00,35,984.39
2016,11,19,00,36,984.32
2016,11,19,00,37,984.32
2016,11,19,00,38,984.39
2016,11,19,00,39,984.36
2016,11,19,00,40,984.22
2016,11,19,00,41,984.29
2016,11,19,00,42,984.22
2016,11,19,00,43,984.25
2016,11,19,00,44,984.25
2016,11,19,00,45,984.25
2016,11,19,00,46,984.12
2016,11,19,00,47,984.19
2016,11,19,00,48,984.22
2016,11,19,00,49,984.19
2016,11,19,00,50,984.08
2016,11,19,00,51,984.19
2016,11,19,00,52,984.15
2016,11,19,00,53,984.08
2016,11,19,00,54,984.02
2016,11,19,00,55,984.12
2016,11,19,00,56,984.15
2016,11,19,00,57,984.02
2016,11,19,00,58,984.08
2016,11,19,00,59,984.05
2016,11,19,01,00,984.05
2016,11,19,01,01,983.98
2016,11,19,01,02,984.08
2016,11,19,01,03,984.02
2016,11,19,01,04,983.92
2016,11,19,01,05,983.98
2016,11,19,01,06,983.98
2016,11,19,01,07,983.85
2016,11,19,01,08,983.85
2016,11,19,01,09,983.88
2016,11,19,01,10,983.85
2016,11,19,01,11,983.85
2016,11,19,01,12,983.92
2016,11,19,01,13,983.95
2016,11,19,01,14,983.92
2016,11,19,01,15,983.98
2016,11,19,01,16,983.92
2016,11,19,01,17,983.88
2016,11,19,01,18,983.78
2016,11,19,01,19,983.78
2016,11,19,01,20,983.75
2016,11,19,01,21,983.68
2016,11,19,01,22,983.71
2016,11,19,01,23,983.75
2016,11,19,01,24,983.71
2016,11,19,01,25,983.75
2016,11,19,01,26,983.75
2016,11,19,01,27,983.75
2016,11,19,01,28,983.75
2016,11,19,01,29,983.71
2016,11,19,01,30,983.85
2016,11,19,01,31,983.75
2016,11,19,01,32,983.81
2016,11,19,01,33,983.75
2016,11,19,01,34,983.71
2016,11,19,01,35,983.64
2016,11,19,01,36,983.68
2016,11,19,01,37,983.61
2016,11,19,01,38,983.61
2016,11,19,01,39,983.58
2016,11,19,01,40,983.68
2016,11,19,01,41,983.68
2016,11,19,01,42,983.71
2016,11,19,01,43,983.64
2016,11,19,01,44,983.61
2016,11,19,01,45,983.68
2016,11,19,01,46,983.78
2016,11,19,01,47,983.64
2016,11,19,01,48,983.58
2016,11,19,01,49,983.64
2016,11,19,01,50,983.61
2016,11,19,01,51,983.64
2016,11,19,01,52,983.61
2016,11,19,01,53,983.68
2016,11,19,01,54,983.61
2016,11,19,01,55,983.64
2016,11,19,01,56,983.64
2016,11,19,01,57,983.58
2016,11,19,01,58,983.54
2016,11,19,01,59,983.58
2016,11,19,02,00,983.58
2016,11,19,02,01,983.54
2016,11,19,02,02,983.58
2016,11,19,02,03,983.51
2016,11,19,02,04,983.44
2016,11,19,02,05,983.37
2016,11,19,02,06,983.41
2016,11,19,02,07,983.37
2016,11,19,02,08,983.31
2016,11,19,02,09,983.48
2016,11,19,02,10,983.31
2016,11,19,02,11,983.37
2016,11,19,02,12,983.44
2016,11,19,02,13,983.24
2016,11,19,02,14,983.31
2016,11,19,02,15,983.34
2016,11,19,02,16,983.20
2016,11,19,02,17,983.37
2016,11,19,02,18,983.37
2016,11,19,02,19,983.27
2016,11,19,02,20,983.20
2016,11,19,02,21,983.24
2016,11,19,02,22,983.27
2016,11,19,02,23,983.24
2016,11,19,02,24,983.31
2016,11,19,02,25,983.27
2016,11,19,02,26,983.34
2016,11,19,02,27,983.34
2016,11,19,02,28,983.27
2016,11,19,02,29,983.31
2016,11,19,02,30,983.27
2016,11,19,02,31,983.24
2016,11,19,02,32,983.24
2016,11,19,02,33,983.20
2016,11,19,02,34,983.20
2016,11,19,02,35,983.27
2016,11,19,02,36,983.20
2016,11,19,02,37,983.34
2016,11,19,02,38,983.27
2016,11,19,02,39,983.20
2016,11,19,02,40,983.31
2016,11,19,02,41,983.31
2016,11,19,02,42,983.24
2016,11,19,02,43,983.34
2016,11,19,02,44,983.31
2016,11,19,02,45,983.37
2016,11,19,02,46,983.27
2016,11,19,02,47,983.31
2016,11,19,02,48,983.31
2016,11,19,02,49,983.20
2016,11,19,02,50,983.34
2016,11,19,02,51,983.37
2016,11,19,02,52,983.37
2016,11,19,02,53,983.34
2016,11,19,02,54,983.27
2016,11,19,02,55,983.27
2016,11,19,02,56,983.27
2016,11,19,02,57,983.24
2016,11,19,02,58,983.31
2016,11,19,02,59,983.34
2016,11,19,03,00,983.41
2016,11,19,03,01,983.37
2016,11,19,03,02,983.34
2016,11,19,03,03,983.20
2016,11,19,03,04,983.20
2016,11,19,03,05,983.31
2016,11,19,03,06,983.34
2016,11,19,03,07,983.48
2016,11,19,03,08,983.24
2016,11,19,03,09,983.41
2016,11,19,03,10,983.44
2016,11,19,03,11,983.24
2016,11,19,03,12,983.31
2016,11,19,03,13,983.27
2016,11,19,03,14,983.27
2016,11,19,03,15,983.24
2016,11,19,03,16,983.20
2016,11,19,03,17,983.20
2016,11,19,03,18,983.34
2016,11,19,03,19,983.27
2016,11,19,03,20,983.27
2016,11,19,03,21,983.27
2016,11,19,03,22,983.31
2016,11,19,03,23,983.31
2016,11,19,03,24,983.14
2016,11,19,03,25,983.27
2016,11,19,03,26,983.34
2016,11,19,03,27,983.27
2016,11,19,03,28,983.24
2016,11,19,03,29,983.31
2016,11,19,03,30,983.24
2016,11,19,03,31,983.24
2016,11,19,03,32,983.24
2016,11,19,03,33,983.24
2016,11,19,03,34,983.31
2016,11,19,03,35,983.31
2016,11,19,03,36,983.31
2016,11,19,03,37,983.20
2016,11,19,03,38,983.03
2016,11,19,03,39,983.07
2016,11,19,03,40,983.24
2016,11,19,03,41,983.14
2016,11,19,03,42,983.00
2016,11,19,03,43,983.07
2016,11,19,03,44,983.10
2016,11,19,03,45,983.03
2016,11,19,03,46,983.03
2016,11,19,03,47,982.83
2016,11,19,03,48,982.87
2016,11,19,03,49,982.90
2016,11,19,03,50,982.90
2016,11,19,03,51,982.83
2016,11,19,03,52,982.87
2016,11,19,03,53,982.80
2016,11,19,03,54,982.80
2016,11,19,03,55,982.76
2016,11,19,03,56,982.80
2016,11,19,03,57,982.87
2016,11,19,03,58,982.87
2016,11,19,03,59,982.76
2016,11,19,04,00,982.76
2016,11,19,04,01,982.73
2016,11,19,04,02,982.66
2016,11,19,04,03,982.66
2016,11,19,04,04,982.70
2016,11,19,04,05,982.73
2016,11,19,04,06,982.73
2016,11,19,04,07,982.76
2016,11,19,04,08,982.76
2016,11,19,04,09,982.70
2016,11,19,04,10,982.76
2016,11,19,04,11,982.66
2016,11,19,04,12,982.70
2016,11,19,04,13,982.80
2016,11,19,04,14,982.80
2016,11,19,04,15,982.87
2016,11,19,04,16,982.70
2016,11,19,04,17,982.76
2016,11,19,04,18,982.70
2016,11,19,04,19,982.76
2016,11,19,04,20,982.76
2016,11,19,04,21,982.66
2016,11,19,04,22,982.66
2016,11,19,04,23,982.73
2016,11,19,04,24,982.90
2016,11,19,04,25,982.80
2016,11,19,04,26,982.80
2016,11,19,04,27,982.83
2016,11,19,04,28,982.90
2016,11,19,04,29,982.87
2016,11,19,04,30,982.80
2016,11,19,04,31,982.87
2016,11,19,04,32,982.80
2016,11,19,04,33,982.73
2016,11,19,04,34,982.90
2016,11,19,04,35,982.83
2016,11,19,04,36,982.90
2016,11,19,04,37,982.83
2016,11,19,04,38,982.83
2016,11,19,04,39,982.83
2016,11,19,04,40,982.83
2016,11,19,04,41,982.76
2016,11,19,04,42,982.76
2016,11,19,04,43,982.90
2016,11,19,04,44,982.76
2016,11,19,04,45,982.90
2016,11,19,04,46,982.83
2016,11,19,04,47,982.83
2016,11,19,04,48,982.76
2016,11,19,04,49,982.70
2016,11,19,04,50,982.80
2016,11,19,04,51,982.73
2016,11,19,04,52,982.76
2016,11,19,04,53,982.76
2016,11,19,04,54,982.87
2016,11,19,04,55,982.80
2016,11,19,04,56,982.80
2016,11,19,04,57,982.93
2016,11,19,04,58,982.80
2016,11,19,04,59,982.66
2016,11,19,05,00,982.59
2016,11,19,05,01,982.59
2016,11,19,05,02,982.73
2016,11,19,05,03,982.83
2016,11,19,05,04,982.90
2016,11,19,05,05,982.80
2016,11,19,05,06,982.70
2016,11,19,05,07,982.63
2016,11,19,05,08,982.66
2016,11,19,05,09,982.63
2016,11,19,05,10,982.73
2016,11,19,05,11,982.66
2016,11,19,05,12,982.56
2016,11,19,05,13,982.49
2016,11,19,05,14,982.46
2016,11,19,05,15,982.53
2016,11,19,05,16,982.56
2016,11,19,05,17,982.56
2016,11,19,05,18,982.80
2016,11,19,05,19,982.66
2016,11,19,05,20,982.63
2016,11,19,05,21,982.63
2016,11,19,05,22,982.59
2016,11,19,05,23,982.66
2016,11,19,05,24,982.76
2016,11,19,05,25,982.56
2016,11,19,05,26,982.43
2016,11,19,05,27,982.46
2016,11,19,05,28,982.53
2016,11,19,05,29,982.46
2016,11,19,05,30,982.56
2016,11,19,05,31,982.59
2016,11,19,05,32,982.73
2016,11,19,05,33,982.70
2016,11,19,05,34,982.63
2016,11,19,05,35,982.66
2016,11,19,05,36,982.73
2016,11,19,05,37,982.70
2016,11,19,05,38,982.73
2016,11,19,05,39,982.59
2016,11,19,05,40,982.70
2016,11,19,05,41,982.80
2016,11,19,05,42,982.59
2016,11,19,05,43,982.66
2016,11,19,05,44,982.66
2016,11,19,05,45,982.73
2016,11,19,05,46,982.80
2016,11,19,05,47,982.76
2016,11,19,05,48,982.76
2016,11,19,05,49,982.70
2016,11,19,05,50,982.63
2016,11,19,05,51,982.70
2016,11,19,05,52,982.76
2016,11,19,05,53,982.73
2016,11,19,05,54,982.70
2016,11,19,05,55,982.76
2016,11,19,05,56,982.66
2016,11,19,05,57,982.73
2016,11,19,05,58,982.70
2016,11,19,05,59,982.87
2016,11,19,06,00,982.70
2016,11,19,06,01,982.73
2016,11,19,06,02,982.70
2016,11,19,06,03,982.76
2016,11,19,06,04,982.70
2016,11,19,06,05,982.80
2016,11,19,06,06,982.70
2016,11,19,06,07,982.83
2016,11,19,06,08,982.76
2016,11,19,06,09,982.87
2016,11,19,06,10,982.80
2016,11,19,06,11,982.80
2016,11,19,06,12,982.83
2016,11,19,06,13,982.70
2016,11,19,06,14,982.66
2016,11,19,06,15,982.66
2016,11,19,06,16,982.73
2016,11,19,06,17,982.63
2016,11,19,06,18,982.63
2016,11,19,06,19,982.59
2016,11,19,06,20,982.66
2016,11,19,06,21,982.73
2016,11,19,06,22,982.66
2016,11,19,06,23,982.73
2016,11,19,06,24,982.76
2016,11,19,06,25,982.73
2016,11,19,06,26,982.66
2016,11,19,06,27,982.83
2016,11,19,06,28,982.76
2016,11,19,06,29,982.80
2016,11,19,06,30,982.73
2016,11,19,06,31,982.76
2016,11,19,06,32,982.80
2016,11,19,06,33,982.87
2016,11,19,06,34,982.76
2016,11,19,06,35,982.87
2016,11,19,06,36,982.83
2016,11,19,06,37,982.93
2016,11,19,06,38,982.87
2016,11,19,06,39,982.83
2016,11,19,06,40,982.87
2016,11,19,06,41,982.80
2016,11,19,06,42,982.80
2016,11,19,06,43,982.83
2016,11,19,06,44,982.87
2016,11,19,06,45,982.73
2016,11,19,06,46,982.76
2016,11,19,06,47,982.90
2016,11,19,06,48,982.76
2016,11,19,06,49,982.80
2016,11,19,06,50,982.83
2016,11,19,06,51,982.80
2016,11,19,06,52,982.80
2016,11,19,06,53,982.73
2016,11,19,06,54,982.87
2016,11,19,06,55,982.87
2016,11,19,06,56,982.87
2016,11,19,06,57,982.73
2016,11,19,06,58,982.73
2016,11,19,06,59,982.73
2016,11,19,07,00,982.83
2016,11,19,07,01,982.73
2016,11,19,07,02,982.83
2016,11,19,07,03,982.70
2016,11,19,07,04,982.73
2016,11,19,07,05,982.76
2016,11,19,07,06,982.93
2016,11,19,07,07,982.93
2016,11,19,07,08,982.83
2016,11,19,07,09,982.87
2016,11,19,07,10,982.66
2016,11,19,07,11,982.83
2016,11,19,07,12,982.76
2016,11,19,07,13,982.87
2016,11,19,07,14,982.90
2016,11,19,07,15,982.76
2016,11,19,07,16,982.73
2016,11,19,07,17,982.80
2016,11,19,07,18,982.73
2016,11,19,07,19,982.80
2016,11,19,07,20,982.76
2016,11,19,07,21,982.70
2016,11,19,07,22,982.66
2016,11,19,07,23,982.73
2016,11,19,07,24,982.73
2016,11,19,07,25,982.76
2016,11,19,07,26,982.76
2016,11,19,07,27,982.93
2016,11,19,07,28,982.93
2016,11,19,07,29,983.00
2016,11,19,07,30,982.93
2016,11,19,07,31,982.93
2016,11,19,07,32,982.87
2016,11,19,07,33,982.93
2016,11,19,07,34,982.93
2016,11,19,07,35,983.00
2016,11,19,07,36,983.03
2016,11,19,07,37,983.00
2016,11,19,07,38,983.14
2016,11,19,07,39,983.10
2016,11,19,07,40,983.03
2016,11,19,07,41,983.03
2016,11,19,07,42,983.00
2016,11,19,07,43,983.10
2016,11,19,07,44,983.14
2016,11,19,07,45,982.93
2016,11,19,07,46,982.90
2016,11,19,07,47,983.00
2016,11,19,07,48,982.93
2016,11,19,07,49,983.10
2016,11,19,07,50,983.00
2016,11,19,07,51,983.14
2016,11,19,07,52,983.10
2016,11,19,07,53,983.00
2016,11,19,07,54,983.10
2016,11,19,07,55,983.24
2016,11,19,07,56,983.10
2016,11,19,07,57,983.10
2016,11,19,07,58,983.17
2016,11,19,07,59,983.03
2016,11,19,08,00,983.14
2016,11,19,08,01,983.27
2016,11,19,08,02,983.14
2016,11,19,08,03,983.14
2016,11,19,08,04,983.10
2016,11,19,08,05,983.07
2016,11,19,08,06,983.31
2016,11,19,08,07,983.14
2016,11,19,08,08,983.14
2016,11,19,08,09,983.14
2016,11,19,08,10,983.17
2016,11,19,08,11,983.24
2016,11,19,08,12,983.31
2016,11,19,08,13,983.44
2016,11,19,08,14,983.51
2016,11,19,08,15,983.37
2016,11,19,08,16,983.48
2016,11,19,08,17,983.48
2016,11,19,08,18,983.48
2016,11,19,08,19,983.44
2016,11,19,08,20,983.48
2016,11,19,08,21,983.37
2016,11,19,08,22,983.44
2016,11,19,08,23,983.41
2016,11,19,08,24,983.44
2016,11,19,08,25,983.58
2016,11,19,08,26,983.48
2016,11,19,08,27,983.61
2016,11,19,08,28,983.61
2016,11,19,08,29,983.54
2016,11,19,08,30,983.54
2016,11,19,08,31,983.61
2016,11,19,08,32,983.51
2016,11,19,08,33,983.58
2016,11,19,08,34,983.64
2016,11,19,08,35,983.54
2016,11,19,08,36,983.61
2016,11,19,08,37,983.61
2016,11,19,08,38,983.68
2016,11,19,08,39,983.68
2016,11,19,08,40,983.71
2016,11,19,08,41,983.78
2016,11,19,08,42,983.78
2016,11,19,08,43,983.75
2016,11,19,08,44,983.78
2016,11,19,08,45,983.81
2016,11,19,08,46,983.88
2016,11,19,08,47,983.78
2016,11,19,08,48,983.75
2016,11,19,08,49,983.92
2016,11,19,08,50,983.78
2016,11,19,08,51,984.19
2016,11,19,08,52,984.05
2016,11,19,08,53,983.88
2016,11,19,08,54,983.88
2016,11,19,08,55,983.92
2016,11,19,08,56,983.98
2016,11,19,08,57,984.05
2016,11,19,08,58,983.81
2016,11,19,08,59,983.88
2016,11,19,09,00,983.92
2016,11,19,09,01,983.88
2016,11,19,09,02,983.92
2016,11,19,09,03,983.92
2016,11,19,09,04,983.95
2016,11,19,09,05,984.02
2016,11,19,09,06,983.92
2016,11,19,09,07,984.02
2016,11,19,09,08,984.02
2016,11,19,09,09,983.98
2016,11,19,09,10,984.05
2016,11,19,09,11,984.02
2016,11,19,09,12,983.98
2016,11,19,09,13,983.98
2016,11,19,09,14,984.05
2016,11,19,09,15,984.08
2016,11,19,09,16,983.98
2016,11,19,09,17,983.95
2016,11,19,09,18,984.02
2016,11,19,09,19,983.98
2016,11,19,09,20,984.02
2016,11,19,09,21,984.05
2016,11,19,09,22,983.98
2016,11,19,09,23,984.02
2016,11,19,09,24,983.98
2016,11,19,09,25,983.95
2016,11,19,09,26,984.02
2016,11,19,09,27,984.12
2016,11,19,09,28,984.22
2016,11,19,09,29,984.08
2016,11,19,09,30,984.02
2016,11,19,09,31,984.15
2016,11,19,09,32,984.19
2016,11,19,09,33,984.15
2016,11,19,09,34,984.15
2016,11,19,09,35,984.19
2016,11,19,09,36,984.12
2016,11,19,09,37,984.36
2016,11,19,09,38,984.32
2016,11,19,09,39,984.32
2016,11,19,09,40,984.36
2016,11,19,09,41,984.42
2016,11,19,09,42,984.32
2016,11,19,09,43,984.36
2016,11,19,09,44,984.36
2016,11,19,09,45,984.25
2016,11,19,09,46,984.29
2016,11,19,09,47,984.39
2016,11,19,09,48,984.46
2016,11,19,09,49,984.39
2016,11,19,09,50,984.42
2016,11,19,09,51,984.39
2016,11,19,09,52,984.36
2016,11,19,09,53,984.32
2016,11,19,09,54,984.29
2016,11,19,09,55,984.39
2016,11,19,09,56,984.29
2016,11,19,09,57,984.36
2016,11,19,09,58,984.36
2016,11,19,09,59,984.36
2016,11,19,10,00,984.36
2016,11,19,10,01,984.39
2016,11,19,10,02,984.36
2016,11,19,10,03,984.36
2016,11,19,10,04,984.36
2016,11,19,10,05,984.36
2016,11,19,10,06,984.42
2016,11,19,10,07,984.39
2016,11,19,10,08,984.25
2016,11,19,10,09,984.39
2016,11,19,10,10,984.46
2016,11,19,10,11,984.52
2016,11,19,10,12,984.42
2016,11,19,10,13,984.46
2016,11,19,10,14,984.49
2016,11,19,10,15,984.46
2016,11,19,10,16,984.49
2016,11,19,10,17,984.59
2016,11,19,10,18,984.56
2016,11,19,10,19,984.63
2016,11,19,10,20,984.56
2016,11,19,10,21,984.56
2016,11,19,10,22,984.49
2016,11,19,10,23,984.52
2016,11,19,10,24,984.59
2016,11,19,10,25,984.63
2016,11,19,10,26,984.56
2016,11,19,10,27,984.69
2016,11,19,10,28,984.69
2016,11,19,10,29,984.66
2016,11,19,10,30,984.63
2016,11,19,10,31,984.63
2016,11,19,10,32,984.66
2016,11,19,10,33,984.56
2016,11,19,10,34,984.56
2016,11,19,10,35,984.63
2016,11,19,10,36,984.69
2016,11,19,10,37,984.63
2016,11,19,10,38,984.66
2016,11,19,10,39,984.76
2016,11,19,10,40,984.69
2016,11,19,10,41,984.66
2016,11,19,10,42,984.76
2016,11,19,10,43,984.86
2016,11,19,10,44,984.97
2016,11,19,10,45,984.90
2016,11,19,10,46,985.00
2016,11,19,10,47,984.93
2016,11,19,10,48,984.93
2016,11,19,10,49,984.97
2016,11,19,10,50,984.97
2016,11,19,10,51,984.93
2016,11,19,10,52,984.97
2016,11,19,10,53,984.90
2016,11,19,10,54,984.83
2016,11,19,10,55,984.86
2016,11,19,10,56,984.80
2016,11,19,10,57,984.76
2016,11,19,10,58,984.76
2016,11,19,10,59,984.83
2016,11,19,11,00,984.90
2016,11,19,11,01,984.90
2016,11,19,11,02,984.90
2016,11,19,11,03,984.90
2016,11,19,11,04,984.83
2016,11,19,11,05,984.83
2016,11,19,11,06,984.80
2016,11,19,11,07,984.80
2016,11,19,11,08,984.90
2016,11,19,11,09,984.73
2016,11,19,11,10,984.66
2016,11,19,11,11,984.93
2016,11,19,11,12,984.80
2016,11,19,11,13,984.86
2016,11,19,11,14,984.80
2016,11,19,11,15,984.83
2016,11,19,11,16,984.76
2016,11,19,11,17,984.93
2016,11,19,11,18,984.90
2016,11,19,11,19,984.83
2016,11,19,11,20,984.86
2016,11,19,11,21,984.86
2016,11,19,11,22,984.76
2016,11,19,11,23,984.83
2016,11,19,11,24,984.66
2016,11,19,11,25,984.73
2016,11,19,11,26,984.80
2016,11,19,11,27,984.83
2016,11,19,11,28,984.83
2016,11,19,11,29,984.90
2016,11,19,11,30,984.90
2016,11,19,11,31,984.93
2016,11,19,11,32,984.90
2016,11,19,11,33,984.93
2016,11,19,11,34,984.97
2016,11,19,11,35,984.97
2016,11,19,11,36,984.93
2016,11,19,11,37,984.90
2016,11,19,11,38,984.76
2016,11,19,11,39,984.80
2016,11,19,11,40,984.73
2016,11,19,11,41,984.83
2016,11,19,11,42,984.93
2016,11,19,11,43,984.93
2016,11,19,11,44,984.90
2016,11,19,11,45,984.86
2016,11,19,11,46,984.76
2016,11,19,11,47,984.83
2016,11,19,11,48,984.80
2016,11,19,11,49,984.73
2016,11,19,11,50,984.73
2016,11,19,11,51,984.69
2016,11,19,11,52,984.73
2016,11,19,11,53,984.76
2016,11,19,11,54,984.80
2016,11,19,11,55,984.69
2016,11,19,11,56,984.73
2016,11,19,11,57,984.76
2016,11,19,11,58,984.73
2016,11,19,11,59,984.69
2016,11,19,12,00,984.80
2016,11,19,12,01,984.80
2016,11,19,12,02,984.80
2016,11,19,12,03,984.69
2016,11,19,12,04,984.76
2016,11,19,12,05,984.80
2016,11,19,12,06,984.80
2016,11,19,12,07,984.83
2016,11,19,12,08,984.80
2016,11,19,12,09,984.83
2016,11,19,12,10,984.86
2016,11,19,12,11,984.97
2016,11,19,12,12,984.93
2016,11,19,12,13,984.97
2016,11,19,12,14,984.90
2016,11,19,12,15,984.80
2016,11,19,12,16,984.90
2016,11,19,12,17,984.90
2016,11,19,12,18,984.83
2016,11,19,12,19,984.86
2016,11,19,12,20,984.97
2016,11,19,12,21,984.83
2016,11,19,12,22,984.80
2016,11,19,12,23,984.83
2016,11,19,12,24,984.83
2016,11,19,12,25,984.90
2016,11,19,12,26,984.73
2016,11,19,12,27,984.69
2016,11,19,12,28,984.76
2016,11,19,12,29,984.69
2016,11,19,12,30,984.73
2016,11,19,12,31,984.73
2016,11,19,12,32,984.80
2016,11,19,12,33,984.69
2016,11,19,12,34,984.76
2016,11,19,12,35,984.69
2016,11,19,12,36,984.69
2016,11,19,12,37,984.80
2016,11,19,12,38,984.63
2016,11,19,12,39,984.59
2016,11,19,12,40,984.66
2016,11,19,12,41,984.66
2016,11,19,12,42,984.69
2016,11,19,12,43,984.59
2016,11,19,12,44,984.73
2016,11,19,12,45,984.66
2016,11,19,12,46,984.56
2016,11,19,12,47,984.66
2016,11,19,12,48,984.63
2016,11,19,12,49,984.56
2016,11,19,12,50,984.66
2016,11,19,12,51,984.59
2016,11,19,12,52,984.59
2016,11,19,12,53,984.66
2016,11,19,12,54,984.56
2016,11,19,12,55,984.66
2016,11,19,12,56,984.63
2016,11,19,12,57,984.66
2016,11,19,12,58,984.80
2016,11,19,12,59,984.83
2016,11,19,13,00,984.69
2016,11,19,13,01,984.63
2016,11,19,13,02,984.69
2016,11,19,13,03,984.66
2016,11,19,13,04,984.73
2016,11,19,13,05,984.69
2016,11,19,13,06,984.69
2016,11,19,13,07,984.69
2016,11,19,13,08,984.73
2016,11,19,13,09,984.63
2016,11,19,13,10,984.63
2016,11,19,13,11,984.56
2016,11,19,13,12,984.66
2016,11,19,13,13,984.63
2016,11,19,13,14,984.56
2016,11,19,13,15,984.56
2016,11,19,13,16,984.69
2016,11,19,13,17,984.63
2016,11,19,13,18,984.63
2016,11,19,13,19,984.66
2016,11,19,13,20,984.66
2016,11,19,13,21,984.59
2016,11,19,13,22,984.66
2016,11,19,13,23,984.63
2016,11,19,13,24,984.59
2016,11,19,13,25,984.66
2016,11,19,13,26,984.63
2016,11,19,13,27,984.69
2016,11,19,13,28,984.66
2016,11,19,13,29,984.63
2016,11,19,13,30,984.69
2016,11,19,13,31,984.76
2016,11,19,13,32,984.73
2016,11,19,13,33,984.69
2016,11,19,13,34,984.76
2016,11,19,13,35,984.69
2016,11,19,13,36,984.73
2016,11,19,13,37,984.76
2016,11,19,13,38,984.76
2016,11,19,13,39,984.73
2016,11,19,13,40,984.76
2016,11,19,13,41,984.73
2016,11,19,13,42,984.63
2016,11,19,13,43,984.66
2016,11,19,13,44,984.69
2016,11,19,13,45,984.69
2016,11,19,13,46,984.59
2016,11,19,13,47,984.63
2016,11,19,13,48,984.66
2016,11,19,13,49,984.66
2016,11,19,13,50,984.63
2016,11,19,13,51,984.66
2016,11,19,13,52,984.59
2016,11,19,13,53,984.63
2016,11,19,13,54,984.69
2016,11,19,13,55,984.59
2016,11,19,13,56,984.66
2016,11,19,13,57,984.63
2016,11,19,13,58,984.66
2016,11,19,13,59,984.69
2016,11,19,14,00,984.63
2016,11,19,14,01,984.59
2016,11,19,14,02,984.59
2016,11,19,14,03,984.59
2016,11,19,14,04,984.63
2016,11,19,14,05,984.56
2016,11,19,14,06,984.59
2016,11,19,14,07,984.56
2016,11,19,14,08,984.52
2016,11,19,14,09,984.52
2016,11,19,14,10,984.56
2016,11,19,14,11,984.52
2016,11,19,14,12,984.49
2016,11,19,14,13,984.59
2016,11,19,14,14,984.46
2016,11,19,14,15,984.56
2016,11,19,14,16,984.46
2016,11,19,14,17,984.49
2016,11,19,14,18,984.46
2016,11,19,14,19,984.46
2016,11,19,14,20,984.46
2016,11,19,14,21,984.42
2016,11,19,14,22,984.42
2016,11,19,14,23,984.46
2016,11,19,14,24,984.42
2016,11,19,14,25,984.46
2016,11,19,14,26,984.46
2016,11,19,14,27,984.46
2016,11,19,14,28,984.49
2016,11,19,14,29,984.42
2016,11,19,14,30,984.36
2016,11,19,14,31,984.42
2016,11,19,14,32,984.42
2016,11,19,14,33,984.36
2016,11,19,14,34,984.36
2016,11,19,14,35,984.32
2016,11,19,14,36,984.25
2016,11,19,14,37,984.22
2016,11,19,14,38,984.25
2016,11,19,14,39,984.22
2016,11,19,14,40,984.15
2016,11,19,14,41,984.12
2016,11,19,14,42,984.12
2016,11,19,14,43,984.19
2016,11,19,14,44,984.08
2016,11,19,14,45,984.05
2016,11,19,14,46,984.22
2016,11,19,14,47,984.08
2016,11,19,14,48,984.08
2016,11,19,14,49,984.08
2016,11,19,14,50,984.05
2016,11,19,14,51,983.95
2016,11,19,14,52,983.92
2016,11,19,14,53,984.12
2016,11,19,14,54,983.98
2016,11,19,14,55,984.02
2016,11,19,14,56,983.88
2016,11,19,14,57,983.85
2016,11,19,14,58,983.92
2016,11,19,14,59,983.88
2016,11,19,15,00,983.95
2016,11,19,15,01,983.98
2016,11,19,15,02,984.02
2016,11,19,15,03,984.02
2016,11,19,15,04,983.81
2016,11,19,15,05,983.88
2016,11,19,15,06,983.92
2016,11,19,15,07,983.88
2016,11,19,15,08,983.88
2016,11,19,15,09,983.88
2016,11,19,15,10,983.81
2016,11,19,15,11,983.78
2016,11,19,15,12,983.75
2016,11,19,15,13,983.78
2016,11,19,15,14,983.88
2016,11,19,15,15,983.85
2016,11,19,15,16,983.88
2016,11,19,15,17,983.85
2016,11,19,15,18,983.88
2016,11,19,15,19,983.78
2016,11,19,15,20,983.75
2016,11,19,15,21,983.68
2016,11,19,15,22,983.78
2016,11,19,15,23,983.68
2016,11,19,15,24,983.75
2016,11,19,15,25,983.85
2016,11,19,15,26,983.81
2016,11,19,15,27,983.81
2016,11,19,15,28,983.71
2016,11,19,15,29,983.75
2016,11,19,15,30,983.85
2016,11,19,15,31,983.78
2016,11,19,15,32,983.64
2016,11,19,15,33,983.81
2016,11,19,15,34,983.68
2016,11,19,15,35,983.75
2016,11,19,15,36,983.75
2016,11,19,15,37,983.68
2016,11,19,15,38,983.71
2016,11,19,15,39,983.75
2016,11,19,15,40,983.71
2016,11,19,15,41,983.85
2016,11,19,15,42,983.75
2016,11,19,15,43,983.88
2016,11,19,15,44,983.85
2016,11,19,15,45,983.75
2016,11,19,15,46,983.78
2016,11,19,15,47,983.75
2016,11,19,15,48,983.75
2016,11,19,15,49,983.71
2016,11,19,15,50,983.71
2016,11,19,15,51,983.75
2016,11,19,15,52,983.75
2016,11,19,15,53,983.68
2016,11,19,15,54,983.75
2016,11,19,15,55,983.75
2016,11,19,15,56,983.81
2016,11,19,15,57,983.75
2016,11,19,15,58,983.71
2016,11,19,15,59,983.75
2016,11,19,16,00,983.71
2016,11,19,16,01,983.68
2016,11,19,16,02,983.75
2016,11,19,16,03,983.61
2016,11,19,16,04,983.61
2016,11,19,16,05,983.54
2016,11,19,16,06,983.51
2016,11,19,16,07,983.44
2016,11,19,16,08,983.48
2016,11,19,16,09,983.41
2016,11,19,16,10,983.44
2016,11,19,16,11,983.41
2016,11,19,16,12,983.48
2016,11,19,16,13,983.31
2016,11,19,16,14,983.27
2016,11,19,16,15,983.27
2016,11,19,16,16,983.48
2016,11,19,16,17,983.41
2016,11,19,16,18,983.24
2016,11,19,16,19,983.37
2016,11,19,16,20,983.31
2016,11,19,16,21,983.27
2016,11,19,16,22,983.31
2016,11,19,16,23,983.34
2016,11,19,16,24,983.44
2016,11,19,16,25,983.37
2016,11,19,16,26,983.37
2016,11,19,16,27,983.41
2016,11,19,16,28,983.31
2016,11,19,16,29,983.37
2016,11,19,16,30,983.41
2016,11,19,16,31,983.37
2016,11,19,16,32,983.37
2016,11,19,16,33,983.37
2016,11,19,16,34,983.37
2016,11,19,16,35,983.31
2016,11,19,16,36,983.31